This demonstration page uses our WeatherBlox Daily Observations layout. Learn more.

38.88101, -77.10428

Hourly Observations for February 21, 2018

Temp ( °F °C ) Dew Point ( °F °C ) Humidity (%) Winds ( mph kmh ) Pressure ( in mb ) Visibility ( mi km ) Precip ( " mm )
12:52 am 00:52 Mostly Cloudy 59 15 56 13.3 90 90 S 10 17 30.33 1027 10 16.0934 0 0
1:52 am 01:52 Mostly Cloudy 60 15.6 57 13.9 90 90 S 13 20 30.33 1027 10 16.0934 0 0
2:52 am 02:52 Partly Cloudy 59 15 57 13.9 93 93 S 10 17 30.32 1027 10 16.0934 0 0
3:52 am 03:52 Mostly Clear 59 15 58 14.4 96 96 S 10 17 30.32 1027 10 16.0934 0 0
4:52 am 04:52 Mostly Clear 58 14.4 57 13.9 97 97 S 14 22 30.32 1027 10 16.0934 0 0
5:52 am 05:52 Mostly Clear 59 15 58 14.4 96 96 S 10 17 30.33 1027 10 16.0934 0 0
6:52 am 06:52 Partly Cloudy 57 13.9 56 13.3 96 96 S 13 20 30.33 1027 7 11.26538 0 0
7:52 am 07:52 Partly Cloudy 61 16.1 60 15.6 97 97 S 16 26 30.34 1028 10 16.0934 0 0
8:41 am 08:41 Mostly Cloudy 65 18.3 62 16.7 90 90 SSW 23 37 30.36 1028 10 16.0934 0 0
8:52 am 08:52 Mostly Cloudy 66 18.9 62 16.7 87 87 SSW 22 35 30.35 1028 10 16.0934 0 0
9:52 am 09:52 Mostly Cloudy 69 20.6 63 17.2 81 81 SSW 17 28 30.35 1028 10 16.0934 0 0
10:52 am 10:52 Mostly Cloudy 74 23.3 63 17.2 69 69 SSW 17 28 30.33 1027 10 16.0934 0 0
11:52 am 11:52 Mostly Cloudy 76 24.4 63 17.2 64 64 SSW 14 22 30.32 1027 10 16.0934 0 0
12:52 pm 12:52 Mostly Sunny 78 25.6 63 17.2 60 60 SSW 20 31 30.29 1026 10 16.0934 0 0
1:52 pm 13:52 Mostly Cloudy 77 25 62 16.7 60 60 S 18 30 30.27 1025 10 16.0934 0 0
2:52 pm 14:52 Partly Cloudy 80 26.7 62 16.7 54 54 SSW 15 24 30.26 1025 10 16.0934 0 0
3:52 pm 15:52 Partly Cloudy 80 26.7 62 16.7 54 54 SSW 17 28 30.25 1024 10 16.0934 0 0
4:52 pm 16:52 Mostly Sunny 79 26.1 61 16.1 54 54 S 15 24 30.24 1024 10 16.0934 0 0
5:52 pm 17:52 Partly Cloudy 77 25 61 16.1 58 58 SSW 12 19 30.27 1025 10 16.0934 0 0
6:52 pm 18:52 Mostly Cloudy 77 25 61 16.1 58 58 SSW 13 20 30.29 1026 10 16.0934 0 0
7:52 pm 19:52 Mostly Cloudy 69 20.6 59 15 70 70 S 10 17 30.31 1026 10 16.0934 0 0
8:52 pm 20:52 Cloudy 69 20.6 60 15.6 73 73 S 9 15 30.33 1027 10 16.0934 0 0
9:52 pm 21:52 Cloudy 70 21.1 60 15.6 71 71 VRB 3 6 30.35 1028 10 16.0934 0 0
10:52 pm 22:52 Partly Cloudy 69 20.6 61 16.1 76 76 WSW 5 7 30.36 1028 10 16.0934 0 0
11:16 pm 23:16 Mostly Cloudy 69 20.6 61 16.1 76 76 W 3 6 30.36 1028 10 16.0934 0 0
11:52 pm 23:52 Mostly Cloudy 68 20 61 16.1 78 78 N 3 6 30.37 1028 10 16.0934 0 0

Powered by AerisWeather